SHT22A EGLL-EGJB

Flight info

Callsign SHT22A
Flight time N/A
Altitude 22000
Route GASGU N514 EVTES/N0385F210 N621 SAM/N0379F200 N63 LELNA
Aircraft A319/M-SDE3FGHIRWY/LB1

Departure

Time 2026-05-04 21:20
Airport London Heathrow Airport (EGLL)

Arrival

Time N/A
Airport Guernsey Airport (EGJB)
Time Latitude Longitude Altitude Speed Heading
2026-05-04 21:03 51.46996 -0.48597 85 ft 0 kts 269°
2026-05-04 21:14 51.46996 -0.48578 89 ft 4 kts 268°
2026-05-04 21:14 51.46997 -0.48535 88 ft 4 kts 262°
2026-05-04 21:14 51.47004 -0.48493 89 ft 4 kts 237°
2026-05-04 21:15 51.47017 -0.48475 88 ft 0 kts 181°
2026-05-04 21:16 51.47016 -0.48474 88 ft 0 kts 180°
2026-05-04 21:17 51.47007 -0.48474 89 ft 8 kts 180°
2026-05-04 21:17 51.46922 -0.48471 85 ft 14 kts 178°
2026-05-04 21:18 51.46818 -0.48471 85 ft 16 kts 181°
2026-05-04 21:18 51.46676 -0.48473 86 ft 25 kts 179°
2026-05-04 21:18 51.46506 -0.48467 87 ft 23 kts 179°
2026-05-04 21:18 51.46482 -0.48445 88 ft 4 kts 114°
2026-05-04 21:19 51.46479 -0.48372 87 ft 12 kts 90°
2026-05-04 21:19 51.46478 -0.48035 84 ft 60 kts 89°
2026-05-04 21:19 51.46483 -0.47040 85 ft 117 kts 90°
2026-05-04 21:19 51.46488 -0.45457 97 ft 165 kts 88°
2026-05-04 21:20 51.46489 -0.43696 861 ft 152 kts 88°
2026-05-04 21:20 51.46484 -0.42019 1556 ft 155 kts 91°
2026-05-04 21:20 51.46059 -0.40307 1923 ft 183 kts 123°
2026-05-04 21:20 51.45245 -0.38575 2290 ft 206 kts 124°
2026-05-04 21:21 51.44363 -0.36619 2687 ft 232 kts 123°
2026-05-04 21:21 51.43296 -0.34518 3269 ft 255 kts 137°
2026-05-04 21:21 51.41722 -0.33094 4111 ft 267 kts 162°
2026-05-04 21:21 51.39863 -0.32823 5060 ft 272 kts 188°
2026-05-04 21:22 51.38088 -0.33845 6046 ft 273 kts 214°
2026-05-04 21:22 51.36639 -0.35805 7034 ft 274 kts 224°
2026-05-04 21:22 51.35228 -0.37872 7959 ft 277 kts 223°
2026-05-04 21:22 51.33795 -0.39962 8859 ft 281 kts 223°
2026-05-04 21:23 51.32345 -0.42076 9753 ft 284 kts 223°
2026-05-04 21:23 51.30975 -0.44385 10532 ft 289 kts 234°
2026-05-04 21:23 51.30039 -0.47244 11291 ft 294 kts 251°
2026-05-04 21:23 51.29449 -0.50440 11911 ft 302 kts 254°
2026-05-04 21:24 51.28856 -0.53762 12304 ft 322 kts 254°
2026-05-04 21:24 51.28221 -0.57317 12563 ft 342 kts 253°
2026-05-04 21:24 51.27535 -0.61017 13164 ft 351 kts 253°
2026-05-04 21:24 51.26811 -0.64773 13845 ft 357 kts 252°
2026-05-04 21:25 51.26063 -0.68584 14469 ft 361 kts 252°
2026-05-04 21:25 51.25305 -0.72422 15130 ft 364 kts 252°
2026-05-04 21:25 51.24543 -0.76289 15781 ft 367 kts 252°
2026-05-04 21:25 51.23775 -0.80189 16436 ft 370 kts 252°
2026-05-04 21:26 51.23000 -0.84126 17078 ft 373 kts 252°
2026-05-04 21:26 51.22218 -0.88092 17715 ft 377 kts 252°
2026-05-04 21:26 51.21429 -0.92096 18338 ft 380 kts 251°
2026-05-04 21:26 51.20406 -0.95992 18903 ft 382 kts 240°
2026-05-04 21:27 51.18951 -0.99544 19519 ft 384 kts 231°
2026-05-04 21:27 51.17300 -1.02904 20119 ft 386 kts 231°
2026-05-04 21:27 51.15643 -1.06289 20710 ft 388 kts 231°
2026-05-04 21:27 51.13984 -1.09691 20968 ft 390 kts 231°
2026-05-04 21:28 51.12348 -1.13047 21029 ft 386 kts 231°
2026-05-04 21:28 51.10701 -1.16426 21030 ft 385 kts 231°
2026-05-04 21:28 51.09032 -1.19746 21031 ft 384 kts 226°
2026-05-04 21:28 51.07080 -1.22632 21030 ft 383 kts 216°
2026-05-04 21:29 51.04875 -1.24990 21031 ft 382 kts 211°
2026-05-04 21:29 51.02635 -1.27264 21027 ft 382 kts 211°